Retour au catalogue

STARLINK-36276

ActifCommunicationsVLEO
NORAD 67852·PAYLOAD·🇺🇸 United States

Lancé Feb 20, 2026 depuis Vandenberg Space Force Base

Loading…

Prochains Passages (prochaines 24 heures)

TLE

FraisSource: CelesTrak SupGP

Époque: Sep 15, 2026, 03:23 UTC

1 67852C 26034C   26258.14145833  .00001756  00000+0  51887-4 0  2584
2 67852  53.1596  42.7650 0001212  87.9114 251.7956 15.34381648    18

Suivez STARLINK-36276 en temps réel avec AllMySat

Download on the App Store